GW6359 Weather Reports


Display with metric or nautical units.
time (UTC)temp
F
wind
direction
speed
MPH
gust
MPH
rain 1hr
in
rain 24hr
in
rain mn
in
humidity
%
barometer
mb
20260506015503 79 193 1.0 4.0 0.00 0.00 0.00 80 1005.4
20260506015003 79 194 1.0 4.0 0.00 0.00 0.00 79 1005.3
20260506014717 80 194 1.0 4.0 0.00 0.00 0.00 79 1005.4
20260506014003 80 198 1.0 3.0 0.00 0.00 0.00 79 1005.4
20260506013503 80 207 1.0 3.0 0.00 0.00 0.00 79 1005.3
20260506013003 80 200 1.0 2.0 0.00 0.00 0.00 78 1005.3
20260506012503 80 209 0.0 4.0 0.00 0.00 0.00 78 1005.2
20260506012003 80 204 0.0 4.0 0.00 0.00 0.00 77 1005.3
20260506011503 81 209 0.0 2.0 0.00 0.00 0.00 77 1005.5
20260506011218 81 209 0.0 2.0 0.00 0.00 0.00 76 1005.5
20260506010717 81 211 0.0 2.0 0.00 0.00 0.00 76 1005.5
20260506010003 82 208 1.0 4.0 0.00 0.00 0.00 75 1005.3
20260506005503 82 208 1.0 4.0 0.00 0.00 0.00 74 1005.3
20260506005003 82 222 1.0 2.0 0.00 0.00 0.00 74 1005.5
20260506004504 82 224 0.0 3.0 0.00 0.00 0.00 74 1005.3
20260506004003 82 208 1.0 3.0 0.00 0.00 0.00 73 1005.4
20260506003503 82 201 2.0 4.0 0.00 0.00 0.00 73 1005.2
20260506003217 82 201 1.0 4.0 0.00 0.00 0.00 73 1005.3
20260506002717 82 197 1.0 4.0 0.00 0.00 0.00 73 1005.0
20260506002003 83 209 1.0 4.0 0.00 0.00 0.00 73 1005.0
20260506001503 83 209 1.0 4.0 0.00 0.00 0.00 73 1005.2
20260506001003 83 204 1.0 5.0 0.00 0.00 0.00 72 1004.9
20260506000503 83 218 1.0 5.0 0.00 0.00 0.00 72 1005.2
20260506000003 83 220 1.0 4.0 0.00 0.00 0.00 72 1004.9
20260505235716 83 217 1.0 4.0 0.00 0.00 0.00 72 1005.0
20260505235003 83 196 1.0 6.0 0.00 0.00 0.00 72 1004.9
20260505234503 83 200 1.0 6.0 0.00 0.00 0.00 71 1004.9
20260505234003 83 171 1.0 4.0 0.00 0.00 0.00 71 1004.6
20260505233503 83 166 1.0 4.0 0.00 0.00 0.00 71 1004.9
20260505233003 83 205 1.0 6.0 0.00 0.00 0.00 70 1004.7
20260505232503 84 209 1.0 6.0 0.00 0.00 0.00 70 1004.7
20260505232218 84 208 1.0 6.0 0.00 0.00 0.00 70 1004.9
20260505231503 84 224 1.0 6.0 0.00 0.00 0.00 68 1004.7
20260505231003 84 233 2.0 5.0 0.00 0.00 0.00 69 1004.9
20260505230503 84 248 2.0 5.0 0.00 0.00 0.00 69 1004.4
20260505230003 84 236 2.0 8.0 0.00 0.00 0.00 69 1004.6
20260505225503 84 204 2.0 8.0 0.00 0.00 0.00 69 1004.6
20260505225003 84 186 2.0 6.0 0.00 0.00 0.00 69 1004.5
20260505224503 84 206 2.0 7.0 0.00 0.00 0.00 69 1004.6
20260505224003 84 203 3.0 7.0 0.00 0.00 0.00 69 1004.5
20260505223503 84 210 3.0 7.0 0.00 0.00 0.00 67 1004.6
20260505223003 85 207 2.0 6.0 0.00 0.00 0.00 67 1004.5
20260505222503 84 214 2.0 7.0 0.00 0.00 0.00 67 1004.5
20260505222003 84 235 2.0 7.0 0.00 0.00 0.00 66 1004.4
20260505221718 85 227 1.0 7.0 0.00 0.00 0.00 66 1004.5
20260505221003 85 211 3.0 8.0 0.00 0.00 0.00 65 1004.6
20260505220503 85 210 2.0 8.0 0.00 0.00 0.00 65 1004.7
20260505220003 85 214 2.0 8.0 0.00 0.00 0.00 65 1004.9
20260505215503 85 210 2.0 6.0 0.00 0.00 0.00 66 1005.0
20260505215003 84 203 2.0 6.0 0.00 0.00 0.00 66 1005.2
20260505214503 85 201 2.0 10.0 0.00 0.00 0.00 67 1005.0
20260505214003 84 178 2.0 10.0 0.00 0.00 0.00 67 1005.3
20260505213503 85 188 2.0 10.0 0.00 0.00 0.00 66 1005.2
20260505213003 86 215 2.0 7.0 0.00 0.00 0.00 65 1005.3
20260505212503 85 220 2.0 7.0 0.00 0.00 0.00 65 1005.5
20260505212003 85 231 2.0 11.0 0.00 0.00 0.00 64 1005.2
20260505211503 85 233 3.0 11.0 0.00 0.00 0.00 64 1005.4
20260505211003 84 202 3.0 14.0 0.00 0.00 0.00 67 1005.4
20260505210503 84 200 3.0 14.0 0.00 0.00 0.00 66 1005.4
20260505210003 83 213 3.0 6.0 0.00 0.00 0.00 67 1005.4
20260505205503 84 225 2.0 6.0 0.00 0.00 0.00 67 1005.6
20260505205218 83 235 2.0 6.0 0.00 0.00 0.00 68 1005.5
20260505204503 83 236 2.0 7.0 0.00 0.00 0.00 68 1005.8
20260505204003 83 230 2.0 7.0 0.00 0.00 0.00 68 1005.9
20260505203503 83 224 3.0 7.0 0.00 0.00 0.00 70 1006.1
20260505203003 82 196 2.0 7.0 0.00 0.00 0.00 70 1006.2
20260505202717 83 200 2.0 7.0 0.00 0.00 0.00 69 1006.1
20260505202003 82 250 2.0 5.0 0.00 0.00 0.00 69 1006.4
20260505201503 82 239 2.0 5.0 0.00 0.00 0.00 69 1006.5
20260505201003 83 216 2.0 7.0 0.00 0.00 0.00 69 1006.6
20260505200503 82 214 2.0 7.0 0.00 0.00 0.00 70 1006.5
20260505200003 82 229 2.0 5.0 0.00 0.00 0.00 70 1006.4
20260505195503 81 202 2.0 8.0 0.00 0.00 0.00 71 1006.6
20260505195003 82 190 2.0 8.0 0.00 0.00 0.00 70 1006.6
20260505194503 81 198 2.0 8.0 0.00 0.00 0.00 72 1006.7
20260505194004 81 192 2.0 8.0 0.00 0.00 0.00 72 1006.7
20260505193503 82 188 2.0 6.0 0.00 0.00 0.00 71 1006.8
20260505193003 82 204 2.0 8.0 0.00 0.00 0.00 71 1006.9
20260505192503 81 215 2.0 8.0 0.00 0.00 0.00 72 1006.8
20260505192003 81 204 3.0 10.0 0.00 0.00 0.00 71 1007.2
20260505191503 80 204 3.0 10.0 0.00 0.00 0.00 72 1006.8
20260505191003 81 231 2.0 10.0 0.00 0.00 0.00 71 1006.8
20260505190503 81 232 2.0 4.0 0.00 0.00 0.00 72 1006.9
20260505190003 79 236 2.0 4.0 0.00 0.00 0.00 72 1007.0
20260505185717 80 236 1.0 8.0 0.00 0.00 0.00 73 1007.1
20260505185217 80 217 2.0 8.0 0.00 0.00 0.00 73 1007.1
20260505184716 80 221 3.0 8.0 0.00 0.00 0.00 73 1007.1
20260505184003 80 241 2.0 5.0 0.00 0.00 0.00 73 1007.3
20260505183503 79 246 2.0 6.0 0.00 0.00 0.00 75 1007.3
20260505183003 79 174 2.0 6.0 0.00 0.00 0.00 75 1007.4
20260505182503 78 205 2.0 6.0 0.00 0.00 0.00 76 1007.6
20260505182003 79 227 2.0 6.0 0.00 0.00 0.00 76 1007.5
20260505181503 78 239 2.0 6.0 0.00 0.00 0.00 76 1007.6
20260505181003 78 232 2.0 4.0 0.00 0.00 0.00 77 1007.6
20260505180718 78 241 1.0 4.0 0.00 0.00 0.00 77 1007.4
20260505180003 77 244 2.0 4.0 0.00 0.00 0.00 78 1007.8
20260505175503 77 229 2.0 6.0 0.00 0.00 0.00 77 1007.7
20260505175003 77 208 2.0 6.0 0.00 0.00 0.00 77 1007.7
20260505174503 77 192 1.0 5.0 0.00 0.00 0.00 78 1007.8
20260505174003 77 207 1.0 7.0 0.00 0.00 0.00 79 1007.8
20260505173503 76 242 2.0 7.0 0.00 0.00 0.00 79 1008.0
20260505173003 76 233 2.0 5.0 0.00 0.00 0.00 79 1007.9
20260505172503 76 212 2.0 5.0 0.00 0.00 0.00 79 1007.9
20260505172217 76 201 1.0 5.0 0.00 0.00 0.00 79 1008.0
20260505171503 76 197 2.0 4.0 0.00 0.00 0.00 79 1008.0
20260505171003 76 255 2.0 7.0 0.00 0.00 0.00 79 1008.2
20260505170503 76 250 2.0 7.0 0.00 0.00 0.00 80 1008.0
20260505170217 76 223 2.0 7.0 0.00 0.00 0.00 79 1008.2
20260505165503 75 246 1.0 6.0 0.00 0.00 0.00 81 1008.1
20260505165003 74 245 1.0 5.0 0.00 0.00 0.00 82 1008.1
20260505164503 75 244 2.0 5.0 0.00 0.00 0.00 82 1008.1
20260505164003 74 234 2.0 4.0 0.00 0.00 0.00 82 1007.9
20260505163503 75 222 3.0 4.0 0.00 0.00 0.00 82 1008.0
20260505163003 74 246 1.0 4.0 0.00 0.00 0.00 83 1008.1
20260505162503 74 235 1.0 6.0 0.00 0.00 0.00 84 1007.9
20260505162003 74 220 2.0 6.0 0.00 0.00 0.00 84 1008.1
20260505161503 74 218 1.0 5.0 0.00 0.00 0.00 84 1008.3
20260505161003 74 205 2.0 11.0 0.00 0.00 0.00 84 1008.2
20260505160503 74 218 3.0 11.0 0.00 0.00 0.00 84 1008.0
20260505160217 73 214 3.0 11.0 0.00 0.00 0.00 84 1008.2
20260505153218 73 236 3.0 8.0 0.00 0.00 0.00 86 1008.1
20260505152717 73 219 3.0 8.0 0.00 0.00 0.00 86 1008.2
20260505152003 72 235 2.0 8.0 0.00 0.00 0.00 87 1008.2
20260505151504 72 280 2.0 8.0 0.00 0.00 0.00 87 1008.1
20260505151218 72 289 2.0 7.0 0.00 0.00 0.00 87 1007.8
20260505150503 72 230 2.0 7.0 0.00 0.00 0.00 88 1007.8
20260505125003 71 224 3.0 7.0 0.00 0.00 0.00 90 1006.9
20260505124503 71 241 3.0 10.0 0.00 0.00 0.00 90 1006.8
20260505124003 71 263 2.0 10.0 0.00 0.00 0.00 91 1006.9
20260505123503 70 240 2.0 8.0 0.00 0.00 0.00 91 1006.9
20260505123003 70 209 3.0 8.0 0.00 0.00 0.00 91 1006.8
20260505122503 70 202 3.0 7.0 0.00 0.00 0.00 91 1007.0
20260505122003 70 197 3.0 9.0 0.00 0.00 0.00 91 1006.7
20260505121718 70 199 3.0 9.0 0.00 0.00 0.00 91 1006.5
20260505121003 70 199 3.0 9.0 0.00 0.00 0.00 91 1006.4
20260505120503 70 177 3.0 6.0 0.00 0.00 0.00 90 1006.5
20260505120003 70 198 2.0 6.0 0.00 0.00 0.00 90 1006.5
20260505115718 70 226 2.0 6.0 0.00 0.00 0.00 90 1006.6
20260505115217 70 234 2.0 8.0 0.00 0.00 0.00 89 1006.4
20260505114503 71 272 2.0 8.0 0.00 0.00 0.00 89 1006.6
20260505114003 71 235 2.0 8.0 0.00 0.00 0.00 89 1006.5
20260505113503 71 239 2.0 8.0 0.00 0.00 0.00 89 1006.4
20260505113003 71 226 3.0 7.0 0.00 0.00 0.00 89 1006.6
20260505112503 71 210 3.0 7.0 0.00 0.00 0.00 88 1006.5
20260505112217 71 211 3.0 7.0 0.00 0.00 0.00 88 1006.6
20260505111503 71 177 3.0 9.0 0.00 0.00 0.00 88 1006.4
20260505111003 70 170 2.0 9.0 0.00 0.00 0.00 88 1006.5
20260505110503 70 220 2.0 5.0 0.00 0.00 0.00 88 1006.7
20260505102216 70 249 1.0 8.0 0.00 0.00 0.00 88 1006.6
20260505101503 70 246 2.0 8.0 0.00 0.00 0.00 88 1006.9
20260505101003 70 234 1.0 6.0 0.00 0.00 0.00 88 1006.8
20260505100503 70 210 1.0 6.0 0.00 0.00 0.00 88 1007.0
20260505100003 70 209 1.0 6.0 0.00 0.00 0.00 87 1006.8
20260505095503 70 216 1.0 6.0 0.00 0.00 0.00 87 1006.6
20260505095003 70 206 2.0 6.0 0.00 0.00 0.00 87 1006.7
20260505094503 70 211 2.0 6.0 0.00 0.00 0.00 87 1006.7
20260505094003 70 222 2.0 6.0 0.00 0.00 0.00 87 1006.9
20260505093503 70 202 2.0 5.0 0.00 0.00 0.00 87 1006.8
20260505093218 70 204 2.0 5.0 0.00 0.00 0.00 87 1006.9
20260505092717 70 219 2.0 6.0 0.00 0.00 0.00 87 1007.0
20260505092003 70 229 1.0 6.0 0.00 0.00 0.00 86 1006.7
20260505091503 70 220 1.0 6.0 0.00 0.00 0.00 86 1006.9
20260505091003 70 214 1.0 5.0 0.00 0.00 0.00 86 1006.8
20260505090503 70 229 2.0 6.0 0.00 0.00 0.00 86 1007.0
20260505090003 70 211 3.0 6.0 0.00 0.00 0.00 86 1006.8
20260505085503 70 226 2.0 7.0 0.00 0.00 0.00 86 1006.8
20260505085003 70 238 2.0 7.0 0.00 0.00 0.00 86 1006.8
20260505084717 70 237 2.0 5.0 0.00 0.00 0.00 86 1006.7
20260505084218 70 215 1.0 6.0 0.00 0.00 0.00 86 1006.9
20260505083716 70 206 2.0 8.0 0.00 0.00 0.00 86 1006.7
20260505083218 70 227 2.0 8.0 0.00 0.00 0.00 86 1007.0
20260505082716 70 241 2.0 6.0 0.00 0.00 0.00 86 1007.3
20260505082003 70 214 3.0 8.0 0.00 0.00 0.00 86 1007.2
20260505081716 71 205 3.0 8.0 0.00 0.00 0.00 86 1007.4
20260505081003 71 214 2.0 6.0 0.00 0.00 0.00 87 1007.4
20260505080503 71 177 2.0 6.0 0.00 0.00 0.00 87 1007.4
20260505080003 71 193 2.0 6.0 0.00 0.00 0.00 86 1007.4
20260505075503 71 206 2.0 6.0 0.00 0.00 0.00 86 1007.4
20260505075003 71 208 2.0 6.0 0.00 0.00 0.00 86 1007.6
20260505074503 71 222 2.0 6.0 0.00 0.00 0.00 86 1007.6
20260505074003 71 200 2.0 7.0 0.00 0.00 0.00 86 1007.6
20260505073503 71 165 2.0 7.0 0.00 0.00 0.00 86 1007.6
20260505073003 71 172 2.0 7.0 0.00 0.00 0.00 86 1007.7
20260505072718 71 192 2.0 6.0 0.00 0.00 0.00 86 1007.7
20260505072003 71 204 2.0 6.0 0.00 0.00 0.00 86 1007.8
20260505071503 71 212 2.0 6.0 0.00 0.00 0.00 86 1008.1
20260505071003 71 214 2.0 9.0 0.00 0.00 0.00 86 1008.1
20260505070718 71 214 2.0 9.0 0.00 0.00 0.00 86 1008.0
20260505070217 71 231 2.0 9.0 0.00 0.00 0.00 85 1008.1
20260505065503 71 198 3.0 9.0 0.00 0.00 0.00 85 1008.2
20260505065003 71 197 3.0 9.0 0.00 0.00 0.00 85 1008.1
20260505064503 71 210 2.0 7.0 0.00 0.00 0.00 85 1008.2
20260505064003 71 207 2.0 7.0 0.00 0.00 0.00 85 1008.3
20260505063503 71 212 1.0 5.0 0.00 0.00 0.00 85 1008.2
20260505063003 71 210 2.0 6.0 0.00 0.00 0.00 85 1008.5
20260505062503 71 231 3.0 6.0 0.00 0.00 0.00 85 1008.5
20260505062003 71 225 2.0 6.0 0.00 0.00 0.00 85 1008.6
20260505061503 71 210 3.0 9.0 0.00 0.00 0.00 85 1008.5
20260505061003 71 217 3.0 9.0 0.00 0.00 0.00 85 1008.6
20260505060503 71 238 2.0 6.0 0.00 0.00 0.00 85 1008.8
20260505060216 71 223 2.0 9.0 0.00 0.00 0.00 85 1008.7
20260505055503 71 210 3.0 9.0 0.00 0.00 0.00 84 1008.6
20260505055003 71 197 2.0 6.0 0.00 0.00 0.00 84 1008.6
20260505054718 71 204 2.0 7.0 0.00 0.00 0.00 84 1008.6
20260505054003 71 202 1.0 7.0 0.00 0.00 0.00 84 1008.6
20260505053503 71 160 2.0 6.0 0.00 0.00 0.00 84 1008.8
20260505053003 71 191 3.0 8.0 0.00 0.00 0.00 84 1008.7
20260505052503 71 219 3.0 8.0 0.00 0.00 0.00 84 1008.4
20260505052216 71 210 3.0 8.0 0.00 0.00 0.00 84 1008.5
20260505051503 71 189 4.0 10.0 0.00 0.00 0.00 84 1008.7
20260505051003 71 192 3.0 10.0 0.00 0.00 0.00 84 1008.4
20260505050503 71 229 2.0 7.0 0.00 0.00 0.00 84 1008.5
20260505041503 72 209 1.0 9.0 0.00 0.00 0.00 81 1008.5
20260505041003 72 232 2.0 11.0 0.00 0.00 0.00 81 1008.7
20260505040503 73 233 2.0 11.0 0.00 0.00 0.00 81 1008.6
20260505040004 73 202 3.0 9.0 0.00 0.00 0.00 81 1008.5
20260505035503 73 203 3.0 9.0 0.00 0.00 0.00 80 1008.5
20260505035003 73 206 2.0 6.0 0.00 0.00 0.00 80 1008.6
20260505034503 73 212 1.0 6.0 0.00 0.00 0.00 80 1008.3
20260505034218 73 207 2.0 6.0 0.00 0.00 0.00 80 1008.5
20260505033503 74 206 2.0 6.0 0.00 0.00 0.00 79 1008.5
20260505033003 74 196 2.0 6.0 0.00 0.00 0.00 79 1008.4
20260505032503 74 195 3.0 9.0 0.00 0.00 0.00 78 1008.4
20260505032003 74 186 2.0 9.0 0.00 0.00 0.00 78 1008.4
20260505031503 74 180 2.0 8.0 0.00 0.00 0.00 78 1008.5
20260505031003 74 203 2.0 8.0 0.00 0.00 0.00 78 1008.4
20260505030503 74 199 2.0 8.0 0.00 0.00 0.00 77 1008.4
20260505030217 74 183 2.0 8.0 0.00 0.00 0.00 77 1008.4
20260505025503 74 179 1.0 4.0 0.00 0.00 0.00 77 1008.5
20260505025003 74 190 1.0 4.0 0.00 0.00 0.00 77 1008.6
20260505024503 75 212 2.0 6.0 0.00 0.00 0.00 77 1008.3
20260505024003 75 206 2.0 6.0 0.00 0.00 0.00 76 1008.4
20260505023503 75 202 1.0 6.0 0.00 0.00 0.00 76 1008.3
20260505023003 75 200 2.0 5.0 0.00 0.00 0.00 76 1008.2
20260505022716 75 198 2.0 5.0 0.00 0.00 0.00 75 1008.1
20260505022003 75 203 3.0 6.0 0.00 0.00 0.00 75 1008.2
20260505021503 75 188 3.0 7.0 0.00 0.00 0.00 74 1008.5
20260505021003 76 198 2.0 7.0 0.00 0.00 0.00 74 1008.1
20260505020503 76 217 1.0 5.0 0.00 0.00 0.00 74 1008.2
20260505020003 76 197 1.0 5.0 0.00 0.00 0.00 74 1008.2